Showing default

HIMAWARI 8, 40267

Orbit data source: Space-Track

HIMAWARI 8, 40267 is a payload satellite owned by JMA (JP) in GEO that was launched on Tue, 07 Oct 2014 UTC via an H-IIA 202 launch vehicle from the Tanegashima Space Center (TNSTA). Payload-class satellites include a variety of spacecraft equipped with specific instruments for various scientific and technological missions. These include communications satellites like Starlink; space stations such as the ISS; scientific satellites like the Hubble; Earth observation satellites from companies like Planet Labs, Umbra, and HawkEye 360; GPS; miniature CubeSats for education and research; and military/defense satellites.

Not visible in the next 10 days
Identifier
40267, 2014-060A
Orbit
GEO
Country
Flag of JPJP / JPN
Related business
Manufacturer
MELCO
Mission
Operational Civil Weather
Bus & Motor
DS-2000, R-4D
Mass
3,500 kg wet, 1,300 kg dry
Launch date (UTC)
2014-10-07 (11 years ago)
Launch vehicle
H-IIA 202
Launch site
Tanegashima Space Center (TNSTA)
Object type
Payload
Rocket body
Debris
Shape & HBR
Box + 1 Pan + 1 Rod, 15.0 m
Radar Cross Section
63.551 m², Large (>1 m²)

Expand to show TLE details & history
Last TLE update: 1 day ago

TLE from 1 day ago
0 HIMAWARI 8
1 40267U 14060A   25346.23285885 -.00000266  00000-0  00000-0 0  9996
2 40267   0.0353 190.2834 0001211 114.4453   0.9332  1.00270039 40885
Epoch: 2025-12-12T05:35Z
TLE epoch observation values (Epoch: 2025-12-12T05:35:19.004Z)
Latitude
0.01492°
Longitude
140.65016°
Altitude
35,781.469 km
Speed
3.075 km/s
True Right ascension
20h 22m 37s
True Declination
0° 00' 54"
Sunlit
Object was in daylight at epoch
Visualization orbit readout
Latitude
Unknown
Longitude
Unknown
Altitude
Unknown
Speed
Unknown
Apparent Right ascension
Unknown
Apparent Declination
Unknown
Sunlit
N/A
Visualization observer readout
Local Sidereal Time
05:22:56
Azimuth
Unknown
Elevation
Unknown
Doppler factor
Unknown
Orbital elements
Apogee altitude
35,793.261 km
Perigee altitude
35,783.048 km
Semi-major axis
42,166.292 km
Eccentricity
0.00012
Inclination
0.0353°
RAAN
190.2834°
Arg. of periapsis
114.4453°
True anomaly
0.93343°
Mean anomaly
0.9332°
Eccentric anomaly
0.93331°
Mean motion
0.25067 °/min
Orbital period
1,436.18 mins
BSTAR
0
Loading maneuver chart data...
Computing Atmospheric mass density...
Loading historical data...
Loading historical data...
Loading historical data...
Loading historical data...
Loading historical data...
Loading historical data...
Loading historical data...
Other satellites on launch #60 in the year 2014 (2014-10-07 UTC)

Documentation

Showing up to 5 results
|